| time (UTC) | temp C | wind direction | speed KPH | gust KPH | rain 1hr cm | rain 24hr cm | rain mn cm | humidity % | barometer mb |
| 20260904093843 | 22 | 142 | 0.0 | 0.0 | 0.00 | 0.00 | 0.00 | 99 | 1007.1 |
| 20260904092952 | 22 | 142 | 0.0 | 0.0 | 0.00 | 0.00 | 0.00 | 99 | 1007.1 |
| 20260904092036 | 22 | 142 | 0.0 | 0.0 | 0.00 | 0.00 | 0.00 | 99 | 1007.1 |
| 20260904091120 | 22 | 142 | 0.0 | 0.0 | 0.00 | 0.00 | 0.00 | 99 | 1007.1 |
| 20260904090704 | 22 | 142 | 0.0 | 0.0 | 0.00 | 0.00 | 0.00 | 99 | 1007.4 |
| 20260904090250 | 22 | 142 | 0.0 | 0.0 | 0.00 | 0.00 | 0.00 | 99 | 1007.1 |
| 20260904085834 | 22 | 139 | 0.0 | 0.0 | 0.00 | 0.00 | 0.00 | 99 | 1007.1 |
| 20260904085419 | 22 | 139 | 0.0 | 0.0 | 0.00 | 0.00 | 0.00 | 99 | 1007.1 |
| 20260904085003 | 22 | 138 | 0.0 | 0.0 | 0.00 | 0.00 | 0.00 | 99 | 1007.1 |
| 20260904084533 | 22 | 138 | 0.0 | 0.0 | 0.00 | 0.00 | 0.00 | 99 | 1007.1 |
| 20260904084118 | 22 | 125 | 0.0 | 0.0 | 0.00 | 0.00 | 0.00 | 99 | 1007.1 |
| 20260904083648 | 22 | 125 | 0.0 | 0.0 | 0.00 | 0.00 | 0.00 | 99 | 1006.7 |
| 20260904083234 | 22 | 125 | 0.0 | 0.0 | 0.00 | 0.00 | 0.00 | 99 | 1007.1 |
| 20260904082816 | 23 | 126 | 0.0 | 0.0 | 0.00 | 0.00 | 0.00 | 99 | 1007.1 |
| 20260904082347 | 22 | 132 | 0.0 | 0.0 | 0.00 | 0.00 | 0.00 | 99 | 1006.7 |
| 20260904081930 | 22 | 136 | 0.0 | 0.0 | 0.00 | 0.00 | 0.00 | 99 | 1006.7 |
| 20260904081502 | 22 | 135 | 0.0 | 0.0 | 0.00 | 0.00 | 0.00 | 99 | 1006.7 |
| 20260904081048 | 22 | 135 | 0.0 | 0.0 | 0.00 | 0.00 | 0.00 | 99 | 1006.7 |
| 20260904080617 | 23 | 134 | 0.0 | 0.0 | 0.00 | 0.00 | 0.00 | 99 | 1006.7 |
| 20260904075730 | 23 | 143 | 0.0 | 0.0 | 0.00 | 0.00 | 0.00 | 99 | 1007.1 |
| 20260904075314 | 23 | 143 | 0.0 | 0.0 | 0.00 | 0.00 | 0.00 | 99 | 1006.7 |
| 20260904074858 | 23 | 142 | 0.0 | 0.0 | 0.00 | 0.00 | 0.00 | 99 | 1007.1 |
| 20260904074443 | 23 | 142 | 0.0 | 0.0 | 0.00 | 0.00 | 0.00 | 99 | 1006.7 |
| 20260904074012 | 23 | 142 | 0.0 | 0.0 | 0.00 | 0.00 | 0.00 | 99 | 1006.7 |
| 20260904073539 | 23 | 142 | 0.0 | 0.0 | 0.00 | 0.00 | 0.00 | 99 | 1006.7 |
| 20260904073108 | 23 | 130 | 0.0 | 0.0 | 0.00 | 0.00 | 0.00 | 99 | 1007.1 |
| 20260904072654 | 23 | 135 | 0.0 | 0.0 | 0.00 | 0.00 | 0.00 | 99 | 1006.7 |
| 20260904072238 | 23 | 142 | 0.0 | 0.0 | 0.00 | 0.00 | 0.00 | 99 | 1007.1 |
| 20260904071824 | 23 | 136 | 0.0 | 0.0 | 0.00 | 0.00 | 0.00 | 99 | 1007.1 |
| 20260904071406 | 23 | 136 | 0.0 | 0.0 | 0.00 | 0.00 | 0.00 | 99 | 1007.1 |
| 20260904070951 | 23 | 122 | 0.0 | 0.0 | 0.00 | 0.00 | 0.00 | 99 | 1007.1 |
| 20260904070535 | 23 | 143 | 0.0 | 0.0 | 0.00 | 0.00 | 0.00 | 99 | 1007.1 |
| 20260904070120 | 23 | 142 | 0.0 | 0.0 | 0.00 | 0.00 | 0.00 | 99 | 1007.1 |
| 20260904065233 | 23 | 138 | 0.0 | 0.0 | 0.00 | 0.00 | 0.00 | 99 | 1007.1 |
| 20260904064815 | 23 | 124 | 0.0 | 0.0 | 0.00 | 0.00 | 0.00 | 99 | 1007.1 |
| 20260904064358 | 23 | 130 | 0.0 | 0.0 | 0.00 | 0.00 | 0.00 | 99 | 1007.1 |
| 20260904063941 | 23 | 136 | 0.0 | 0.0 | 0.00 | 0.00 | 0.00 | 99 | 1007.1 |
| 20260904063525 | 23 | 135 | 0.0 | 0.0 | 0.00 | 0.00 | 0.00 | 99 | 1007.1 |
| 20260904063053 | 23 | 129 | 0.0 | 0.0 | 0.00 | 0.00 | 0.00 | 99 | 1007.1 |
| 20260904062622 | 23 | 117 | 0.0 | 0.0 | 0.00 | 0.00 | 0.00 | 99 | 1007.1 |
| 20260904062207 | 23 | 135 | 0.0 | 0.0 | 0.00 | 0.00 | 0.00 | 99 | 1007.1 |
| 20260904061751 | 23 | 142 | 0.0 | 0.0 | 0.00 | 0.00 | 0.00 | 99 | 1007.1 |
| 20260904061336 | 23 | 142 | 0.0 | 0.0 | 0.00 | 0.00 | 0.00 | 99 | 1007.1 |
| 20260904060450 | 23 | 142 | 0.0 | 0.0 | 0.00 | 0.00 | 0.00 | 99 | 1007.4 |
| 20260904060019 | 23 | 142 | 0.0 | 0.0 | 0.00 | 0.00 | 0.00 | 99 | 1007.4 |
| 20260904055603 | 23 | 140 | 0.0 | 0.0 | 0.00 | 0.00 | 0.00 | 99 | 1007.4 |
| 20260904054717 | 24 | 144 | 0.0 | 0.0 | 0.00 | 0.00 | 0.00 | 99 | 1007.4 |
| 20260904053815 | 24 | 132 | 0.0 | 0.0 | 0.00 | 0.00 | 0.00 | 99 | 1007.4 |
| 20260904053359 | 24 | 116 | 0.0 | 0.0 | 0.00 | 0.00 | 0.00 | 99 | 1007.4 |
| 20260904052927 | 24 | 156 | 0.0 | 1.6 | 0.00 | 0.00 | 0.00 | 99 | 1007.4 |
| 20260904052418 | 24 | 145 | 0.0 | 0.0 | 0.00 | 0.00 | 0.00 | 99 | 1007.7 |
| 20260904051842 | 24 | 144 | 0.0 | 0.0 | 0.00 | 0.00 | 0.00 | 99 | 1007.7 |
| 20260904051213 | 24 | 144 | 0.0 | 0.0 | 0.00 | 0.00 | 0.00 | 99 | 1007.4 |
| 20260904050645 | 24 | 144 | 0.0 | 0.0 | 0.00 | 0.00 | 0.00 | 99 | 1007.4 |
| 20260904050034 | 24 | 144 | 0.0 | 0.0 | 0.00 | 0.00 | 0.00 | 99 | 1007.7 |
| 20260904044826 | 24 | 143 | 0.0 | 0.0 | 0.00 | 0.00 | 0.00 | 99 | 1007.4 |
| 20260904044248 | 25 | 135 | 0.0 | 0.0 | 0.00 | 0.00 | 0.00 | 99 | 1007.4 |
| 20260904043619 | 25 | 136 | 0.0 | 0.0 | 0.00 | 0.00 | 0.00 | 99 | 1007.7 |
| 20260904043026 | 25 | 143 | 0.0 | 0.0 | 0.00 | 0.00 | 0.00 | 99 | 1007.4 |
| 20260904041823 | 25 | 141 | 0.0 | 0.0 | 0.00 | 0.00 | 0.00 | 99 | 1007.4 |
| 20260904041219 | 25 | 141 | 0.0 | 0.0 | 0.00 | 0.00 | 0.00 | 99 | 1007.4 |
| 20260904040620 | 25 | 133 | 0.0 | 0.0 | 0.00 | 0.00 | 0.00 | 99 | 1007.1 |
| 20260904040025 | 25 | 135 | 0.0 | 0.0 | 0.00 | 0.00 | 0.00 | 99 | 1007.1 |
| 20260904034217 | 25 | 141 | 0.0 | 0.0 | 0.00 | 0.00 | 0.00 | 99 | 1007.1 |
| 20260904033614 | 25 | 113 | 0.0 | 0.0 | 0.00 | 0.00 | 0.00 | 99 | 1007.1 |
| 20260904032426 | 25 | 144 | 0.0 | 0.0 | 0.00 | 0.00 | 0.00 | 99 | 1007.4 |
| 20260904031807 | 25 | 140 | 0.0 | 0.0 | 0.00 | 0.00 | 0.00 | 99 | 1007.4 |
| 20260904031220 | 25 | 135 | 0.0 | 0.0 | 0.00 | 0.00 | 0.00 | 99 | 1007.1 |
| 20260904030630 | 25 | 135 | 0.0 | 0.0 | 0.00 | 0.00 | 0.00 | 99 | 1007.1 |
| 20260904030036 | 26 | 130 | 0.0 | 0.0 | 0.00 | 0.00 | 0.00 | 99 | 1007.4 |
| 20260904025411 | 26 | 139 | 0.0 | 0.0 | 0.00 | 0.00 | 0.00 | 99 | 1007.1 |
| 20260904024825 | 26 | 124 | 0.0 | 0.0 | 0.00 | 0.00 | 0.00 | 99 | 1007.1 |
| 20260904024224 | 26 | 71 | 0.0 | 1.6 | 0.00 | 0.00 | 0.00 | 99 | 1007.4 |
| 20260904023042 | 26 | 140 | 0.0 | 0.0 | 0.00 | 0.00 | 0.00 | 99 | 1007.1 |
| 20260904022433 | 26 | 126 | 0.0 | 0.0 | 0.00 | 0.00 | 0.00 | 99 | 1007.4 |
| 20260904021206 | 26 | 125 | 0.0 | 0.0 | 0.00 | 0.00 | 0.00 | 98 | 1007.4 |
| 20260904020642 | 26 | 132 | 0.0 | 0.0 | 0.00 | 0.00 | 0.00 | 98 | 1007.4 |
| 20260904020022 | 26 | 132 | 0.0 | 0.0 | 0.00 | 0.00 | 0.00 | 98 | 1007.4 |
| 20260904015423 | 26 | 131 | 0.0 | 0.0 | 0.00 | 0.00 | 0.00 | 98 | 1007.4 |
| 20260904014240 | 26 | 125 | 0.0 | 0.0 | 0.00 | 0.00 | 0.00 | 97 | 1007.4 |
| 20260904013613 | 27 | 128 | 0.0 | 0.0 | 0.00 | 0.00 | 0.00 | 97 | 1007.4 |
| 20260904013043 | 27 | 133 | 0.0 | 0.0 | 0.00 | 0.00 | 0.00 | 97 | 1007.4 |
| 20260904012419 | 27 | 133 | 0.0 | 0.0 | 0.00 | 0.00 | 0.00 | 97 | 1007.1 |
| 20260904011825 | 27 | 132 | 0.0 | 0.0 | 0.00 | 0.00 | 0.00 | 96 | 1007.1 |
| 20260904010009 | 27 | 139 | 0.0 | 0.0 | 0.00 | 0.00 | 0.00 | 95 | 1007.1 |
| 20260904005444 | 27 | 133 | 0.0 | 0.0 | 0.00 | 0.00 | 0.00 | 95 | 1007.1 |
| 20260904004806 | 27 | 126 | 0.0 | 0.0 | 0.00 | 0.00 | 0.00 | 94 | 1007.1 |
| 20260904004242 | 27 | 125 | 0.0 | 0.0 | 0.00 | 0.00 | 0.00 | 94 | 1006.7 |
| 20260904002445 | 28 | 142 | 0.0 | 0.0 | 0.00 | 0.00 | 0.00 | 92 | 1006.7 |
| 20260904001848 | 28 | 142 | 0.0 | 0.0 | 0.00 | 0.00 | 0.00 | 91 | 1006.4 |
| 20260904001236 | 28 | 142 | 0.0 | 0.0 | 0.00 | 0.00 | 0.00 | 91 | 1006.4 |
| 20260904000641 | 28 | 148 | 0.0 | 0.0 | 0.00 | 0.00 | 0.00 | 90 | 1006.4 |
| 20260904000015 | 29 | 131 | 0.0 | 0.0 | 0.00 | 0.00 | 0.00 | 90 | 1006.7 |
| 20260903235440 | 29 | 141 | 0.0 | 0.0 | 0.00 | 0.00 | 0.00 | 89 | 1006.4 |
| 20260903234828 | 30 | 141 | 0.0 | 0.0 | 0.00 | 0.00 | 0.00 | 89 | 1006.4 |
| 20260903234218 | 30 | 139 | 0.0 | 0.0 | 0.00 | 0.00 | 0.00 | 87 | 1006.7 |
| 20260903233618 | 30 | 139 | 0.0 | 0.0 | 0.00 | 0.00 | 0.00 | 86 | 1006.7 |
| 20260903232431 | 31 | 125 | 0.0 | 0.0 | 0.00 | 0.00 | 0.00 | 81 | 1006.7 |
| 20260903231236 | 34 | 144 | 0.0 | 0.0 | 0.00 | 0.00 | 0.00 | 74 | 1006.4 |
| 20260903230034 | 35 | 150 | 0.0 | 0.0 | 0.00 | 0.00 | 0.00 | 70 | 1006.0 |
| 20260903225421 | 35 | 149 | 0.0 | 0.0 | 0.00 | 0.00 | 0.00 | 69 | 1006.0 |
| 20260903224821 | 36 | 141 | 0.0 | 0.0 | 0.00 | 0.00 | 0.00 | 68 | 1006.0 |
| 20260903224246 | 36 | 134 | 0.0 | 0.0 | 0.00 | 0.00 | 0.00 | 67 | 1006.0 |
| 20260903221840 | 36 | 172 | 0.0 | 0.0 | 0.00 | 0.00 | 0.00 | 65 | 1005.7 |
| 20260903221234 | 36 | 150 | 1.6 | 1.6 | 0.00 | 0.00 | 0.00 | 67 | 1005.7 |
| 20260903220619 | 36 | 158 | 0.0 | 1.6 | 0.00 | 0.00 | 0.00 | 68 | 1005.7 |
| 20260903220026 | 36 | 161 | 0.0 | 1.6 | 0.00 | 0.00 | 0.00 | 67 | 1006.0 |
| 20260903215411 | 36 | 174 | 0.0 | 1.6 | 0.00 | 0.00 | 0.00 | 65 | 1005.7 |
| 20260903214833 | 36 | 181 | 1.6 | 1.6 | 0.00 | 0.00 | 0.00 | 62 | 1005.7 |
| 20260903214212 | 36 | 133 | 0.0 | 0.0 | 0.00 | 0.00 | 0.00 | 62 | 1005.7 |
| 20260903213610 | 36 | 133 | 0.0 | 1.6 | 0.00 | 0.00 | 0.00 | 64 | 1005.7 |
| 20260903213019 | 36 | 172 | 0.0 | 1.6 | 0.00 | 0.00 | 0.00 | 63 | 1005.7 |
| 20260903212434 | 36 | 162 | 0.0 | 0.0 | 0.00 | 0.00 | 0.00 | 63 | 1005.7 |
| 20260903211834 | 36 | 162 | 0.0 | 0.0 | 0.00 | 0.00 | 0.00 | 62 | 1005.7 |
| 20260903211243 | 35 | 115 | 0.0 | 1.6 | 0.00 | 0.00 | 0.00 | 65 | 1006.0 |
| 20260903210617 | 33 | 188 | 1.6 | 1.6 | 0.00 | 0.00 | 0.00 | 67 | 1006.4 |
| 20260903210020 | 32 | 316 | 3.2 | 3.2 | 0.00 | 0.00 | 0.00 | 69 | 1006.0 |
| 20260903205411 | 31 | 353 | 4.8 | 4.8 | 0.00 | 0.00 | 0.00 | 71 | 1006.4 |
| 20260903204849 | 32 | 47 | 4.8 | 9.7 | 0.00 | 0.00 | 0.00 | 69 | 1006.7 |
| 20260903204243 | 33 | 231 | 12.9 | 19.3 | 0.00 | 0.00 | 0.00 | 68 | 1006.7 |
| 20260903203628 | 34 | 143 | 0.0 | 0.0 | 0.00 | 0.00 | 0.00 | 70 | 1006.7 |
| 20260903203045 | 35 | 144 | 0.0 | 1.6 | 0.00 | 0.00 | 0.00 | 68 | 1006.7 |
| 20260903202421 | 36 | 137 | 0.0 | 0.0 | 0.00 | 0.00 | 0.00 | 65 | 1006.4 |
| 20260903201833 | 36 | 162 | 0.0 | 1.6 | 0.00 | 0.00 | 0.00 | 63 | 1006.4 |
| 20260903201246 | 36 | 5 | 1.6 | 3.2 | 0.00 | 0.00 | 0.00 | 57 | 1006.7 |
| 20260903200635 | 36 | 342 | 3.2 | 4.8 | 0.00 | 0.00 | 0.00 | 54 | 1006.7 |
| 20260903200012 | 38 | 195 | 1.6 | 3.2 | 0.00 | 0.00 | 0.00 | 53 | 1006.7 |
| 20260903195434 | 37 | 203 | 0.0 | 1.6 | 0.00 | 0.00 | 0.00 | 60 | 1006.7 |
| 20260903194843 | 37 | 170 | 1.6 | 1.6 | 0.00 | 0.00 | 0.00 | 59 | 1006.7 |
| 20260903194213 | 37 | 194 | 1.6 | 3.2 | 0.00 | 0.00 | 0.00 | 55 | 1006.7 |
| 20260903193639 | 36 | 258 | 1.6 | 1.6 | 0.00 | 0.00 | 0.00 | 54 | 1007.1 |
| 20260903193025 | 36 | 211 | 1.6 | 1.6 | 0.00 | 0.00 | 0.00 | 57 | 1007.1 |
| 20260903192439 | 36 | 191 | 3.2 | 3.2 | 0.00 | 0.00 | 0.00 | 59 | 1007.4 |
| 20260903191821 | 37 | 183 | 3.2 | 3.2 | 0.00 | 0.00 | 0.00 | 63 | 1007.1 |
| 20260903191212 | 35 | 165 | 1.6 | 1.6 | 0.00 | 0.00 | 0.00 | 65 | 1007.7 |
| 20260903190628 | 35 | 170 | 1.6 | 1.6 | 0.00 | 0.00 | 0.00 | 64 | 1007.7 |
| 20260903190031 | 37 | 229 | 1.6 | 1.6 | 0.00 | 0.00 | 0.00 | 56 | 1007.4 |
| 20260903185438 | 36 | 271 | 4.8 | 6.4 | 0.00 | 0.00 | 0.00 | 58 | 1007.7 |
| 20260903184239 | 36 | 295 | 3.2 | 4.8 | 0.00 | 0.00 | 0.00 | 60 | 1007.7 |
| 20260903183621 | 36 | 217 | 1.6 | 1.6 | 0.00 | 0.00 | 0.00 | 63 | 1007.7 |
| 20260903182434 | 33 | 209 | 1.6 | 1.6 | 0.00 | 0.00 | 0.00 | 72 | 1007.7 |
| 20260903181836 | 32 | 190 | 1.6 | 1.6 | 0.00 | 0.00 | 0.00 | 76 | 1008.1 |
| 20260903181249 | 31 | 152 | 0.0 | 0.0 | 0.00 | 0.00 | 0.00 | 79 | 1008.1 |
| 20260903180610 | 32 | 149 | 0.0 | 1.6 | 0.00 | 0.00 | 0.00 | 77 | 1008.1 |
| 20260903180039 | 33 | 134 | 0.0 | 0.0 | 0.00 | 0.00 | 0.00 | 74 | 1008.1 |
| 20260903175445 | 33 | 162 | 0.0 | 1.6 | 0.00 | 0.00 | 0.00 | 71 | 1008.4 |
| 20260903174825 | 34 | 173 | 1.6 | 1.6 | 0.00 | 0.00 | 0.00 | 68 | 1008.1 |
| 20260903174239 | 35 | 4 | 3.2 | 3.2 | 0.00 | 0.00 | 0.00 | 63 | 1008.1 |
| 20260903173015 | 35 | 173 | 1.6 | 1.6 | 0.00 | 0.00 | 0.00 | 62 | 1008.4 |
| 20260903172433 | 35 | 178 | 1.6 | 1.6 | 0.00 | 0.00 | 0.00 | 65 | 1008.4 |
| 20260903171826 | 35 | 166 | 0.0 | 1.6 | 0.00 | 0.00 | 0.00 | 63 | 1008.4 |
| 20260903170014 | 34 | 199 | 1.6 | 1.6 | 0.00 | 0.00 | 0.00 | 68 | 1008.4 |
| 20260903165428 | 34 | 185 | 1.6 | 3.2 | 0.00 | 0.00 | 0.00 | 65 | 1008.4 |
| 20260903164826 | 34 | 203 | 3.2 | 4.8 | 0.00 | 0.00 | 0.00 | 69 | 1008.8 |
| 20260903164224 | 33 | 180 | 1.6 | 1.6 | 0.00 | 0.00 | 0.00 | 71 | 1009.1 |
| 20260903163636 | 33 | 275 | 4.8 | 6.4 | 0.00 | 0.00 | 0.00 | 70 | 1008.8 |
| 20260903163045 | 34 | 181 | 3.2 | 3.2 | 0.00 | 0.00 | 0.00 | 72 | 1009.1 |
| 20260903162415 | 33 | 206 | 3.2 | 4.8 | 0.00 | 0.00 | 0.00 | 69 | 1009.1 |
| 20260903161805 | 33 | 187 | 1.6 | 3.2 | 0.00 | 0.00 | 0.00 | 69 | 1009.1 |
| 20260903161249 | 33 | 206 | 3.2 | 3.2 | 0.00 | 0.00 | 0.00 | 74 | 1009.1 |
| 20260903155408 | 33 | 167 | 1.6 | 1.6 | 0.00 | 0.00 | 0.00 | 74 | 1009.1 |
| 20260903154825 | 33 | 11 | 1.6 | 3.2 | 0.00 | 0.00 | 0.00 | 71 | 1009.1 |
| 20260903154226 | 32 | 183 | 0.0 | 1.6 | 0.00 | 0.00 | 0.00 | 75 | 1009.1 |
| 20260903153632 | 32 | 196 | 1.6 | 1.6 | 0.00 | 0.00 | 0.00 | 75 | 1009.1 |
| 20260903153007 | 32 | 166 | 0.0 | 0.0 | 0.00 | 0.00 | 0.00 | 76 | 1009.1 |
| 20260903152413 | 32 | 205 | 0.0 | 1.6 | 0.00 | 0.00 | 0.00 | 77 | 1009.4 |
| 20260903151835 | 31 | 137 | 0.0 | 1.6 | 0.00 | 0.00 | 0.00 | 80 | 1009.4 |
| 20260903151219 | 31 | 149 | 0.0 | 0.0 | 0.00 | 0.00 | 0.00 | 81 | 1009.4 |
| 20260903150626 | 30 | 147 | 1.6 | 1.6 | 0.00 | 0.00 | 0.00 | 80 | 1009.4 |
| 20260903150044 | 30 | 161 | 0.0 | 0.0 | 0.00 | 0.00 | 0.00 | 83 | 1009.1 |
| 20260903145436 | 30 | 311 | 1.6 | 3.2 | 0.00 | 0.00 | 0.00 | 86 | 1009.1 |
| 20260903144818 | 29 | 185 | 1.6 | 1.6 | 0.00 | 0.00 | 0.00 | 87 | 1009.1 |
| 20260903144213 | 29 | 153 | 0.0 | 1.6 | 0.00 | 0.00 | 0.00 | 87 | 1009.4 |
| 20260903143651 | 28 | 108 | 0.0 | 1.6 | 0.00 | 0.00 | 0.00 | 88 | 1009.1 |
| 20260903143033 | 28 | 76 | 1.6 | 1.6 | 0.00 | 0.00 | 0.00 | 89 | 1009.4 |
| 20260903142447 | 27 | 117 | 0.0 | 1.6 | 0.00 | 0.00 | 0.00 | 92 | 1009.4 |
| 20260903141841 | 27 | 168 | 1.6 | 1.6 | 0.00 | 0.00 | 0.00 | 95 | 1009.4 |
| 20260903141221 | 27 | 133 | 0.0 | 0.0 | 0.00 | 0.00 | 0.00 | 95 | 1009.1 |
| 20260903140647 | 27 | 140 | 0.0 | 0.0 | 0.00 | 0.00 | 0.00 | 96 | 1009.1 |
| 20260903140010 | 26 | 134 | 0.0 | 0.0 | 0.00 | 0.00 | 0.00 | 97 | 1009.4 |
| 20260903135422 | 26 | 134 | 0.0 | 0.0 | 0.00 | 0.00 | 0.00 | 98 | 1009.1 |
| 20260903134229 | 25 | 168 | 1.6 | 3.2 | 0.00 | 0.00 | 0.00 | 99 | 1009.4 |
| 20260903133643 | 25 | 165 | 1.6 | 1.6 | 0.00 | 0.00 | 0.00 | 99 | 1009.4 |
| 20260903133012 | 25 | 150 | 0.0 | 0.0 | 0.00 | 0.00 | 0.00 | 99 | 1009.4 |
| 20260903132442 | 25 | 144 | 0.0 | 0.0 | 0.00 | 0.00 | 0.00 | 99 | 1009.4 |
| 20260903131849 | 24 | 145 | 0.0 | 0.0 | 0.00 | 0.00 | 0.00 | 99 | 1009.1 |
| 20260903131223 | 24 | 142 | 0.0 | 0.0 | 0.00 | 0.00 | 0.00 | 99 | 1009.4 |
| 20260903130610 | 23 | 154 | 0.0 | 0.0 | 0.00 | 0.00 | 0.00 | 99 | 1009.4 |
| 20260903130019 | 23 | 132 | 0.0 | 0.0 | 0.00 | 0.00 | 0.00 | 99 | 1009.8 |
| 20260903125448 | 23 | 144 | 0.0 | 0.0 | 0.00 | 0.00 | 0.00 | 99 | 1009.8 |
| 20260903124840 | 23 | 143 | 0.0 | 0.0 | 0.00 | 0.00 | 0.00 | 99 | 1009.8 |
| 20260903123623 | 23 | 142 | 0.0 | 0.0 | 0.00 | 0.00 | 0.00 | 99 | 1009.4 |
| 20260903123015 | 23 | 142 | 0.0 | 0.0 | 0.00 | 0.00 | 0.00 | 99 | 1009.8 |
| 20260903122448 | 22 | 142 | 0.0 | 0.0 | 0.00 | 0.00 | 0.00 | 99 | 1009.4 |
| 20260903121846 | 22 | 142 | 0.0 | 0.0 | 0.00 | 0.00 | 0.00 | 99 | 1009.4 |
| 20260903121235 | 22 | 142 | 0.0 | 0.0 | 0.00 | 0.00 | 0.00 | 99 | 1009.8 |
| 20260903120606 | 22 | 142 | 0.0 | 0.0 | 0.00 | 0.00 | 0.00 | 99 | 1009.4 |
| 20260903115439 | 22 | 142 | 0.0 | 0.0 | 0.00 | 0.00 | 0.00 | 99 | 1009.4 |
| 20260903114815 | 22 | 142 | 0.0 | 0.0 | 0.00 | 0.00 | 0.00 | 99 | 1009.4 |
| 20260903114218 | 22 | 142 | 0.0 | 0.0 | 0.00 | 0.00 | 0.00 | 99 | 1009.4 |
| 20260903113613 | 22 | 143 | 0.0 | 0.0 | 0.00 | 0.00 | 0.00 | 99 | 1009.4 |
| 20260903113040 | 22 | 143 | 0.0 | 0.0 | 0.00 | 0.00 | 0.00 | 99 | 1009.4 |
| 20260903112442 | 22 | 142 | 0.0 | 0.0 | 0.00 | 0.00 | 0.00 | 99 | 1009.4 |
| 20260903111840 | 22 | 143 | 0.0 | 0.0 | 0.00 | 0.00 | 0.00 | 99 | 1009.4 |
| 20260903111238 | 22 | 144 | 0.0 | 0.0 | 0.00 | 0.00 | 0.00 | 99 | 1009.1 |
| 20260903110016 | 22 | 143 | 0.0 | 0.0 | 0.00 | 0.00 | 0.00 | 99 | 1009.1 |
| 20260903104807 | 22 | 134 | 0.0 | 0.0 | 0.00 | 0.00 | 0.00 | 99 | 1009.1 |
| 20260903103014 | 22 | 129 | 0.0 | 0.0 | 0.00 | 0.00 | 0.00 | 99 | 1008.8 |
| 20260903102426 | 22 | 140 | 0.0 | 0.0 | 0.00 | 0.00 | 0.00 | 99 | 1008.8 |
| 20260903101226 | 22 | 140 | 0.0 | 0.0 | 0.00 | 0.00 | 0.00 | 99 | 1008.8 |
| 20260903100036 | 22 | 124 | 0.0 | 0.0 | 0.00 | 0.00 | 0.00 | 99 | 1008.8 |
| 20260903095419 | 22 | 136 | 0.0 | 0.0 | 0.00 | 0.00 | 0.00 | 99 | 1008.8 |
| 20260903094811 | 22 | 122 | 0.0 | 0.0 | 0.00 | 0.00 | 0.00 | 99 | 1008.8 |